Alma, MI

11:09 PM EDT on August 23, 2019 (GMT -0400)
Gratiot Community

Weather History for KAMN - July, 2019

Change the Weather History Date:

Friday, July 19, 2019

  Actual Average Record
Temperature  
Mean Temperature 82 °F -  
Max Temperature 91 °F 84 °F 94 °F (1986)
Min Temperature 74 °F 61 °F 42 °F (2003)
Cooling Degree Days 18    
Growing Degree Days 32 (Base 50)    
Moisture  
Dew Point 73 °F    
Average Humidity 75    
Maximum Humidity 91    
Minimum Humidity 47    
Precipitation  
Precipitation 0.00 in - - ()
Sea Level Pressure  
Sea Level Pressure 29.82 in    
Wind  
Wind Speed 6 mph (SW)    
Max Wind Speed 16 mph    
Max Gust Speed 22 mph    
Visibility 10 miles    
Events      
Averages and records for this station are not official NWS values.
T = Trace of Precipitation, MM = Missing Value Source: NWS Daily Summary

Daily Weather History Graph

Daily Weather History Graph

Search for Another Location

Airport or City:

Astronomy

Jul. 19, 2019 Rise Set
Actual Time 6:15 AM EDT 9:14 PM EDT
Civil Twilight 5:41 AM EDT 9:47 PM EDT
Nautical Twilight 4:58 AM EDT 10:31 PM EDT
Astronomical Twilight 4:07 AM EDT 11:21 PM EDT
Moon 11:08 PM EDT (7/19) 8:43 AM EDT (7/19)
Length of Visible Light 16h 06m
Length of Day
14h 58m
Waning Gibbous, 93% of the Moon is Illuminated
Jul 19
Waning Gibbous
Jul 24
Last Quarter
Jul 31
New
Aug 7
First Quarter
Aug 15
Full

Hourly Weather History & Observations

Time (EDT) Temp. Heat Index Dew Point Humidity Pressure Visibility Wind Dir Wind Speed Gust Speed Precip Events Conditions
12:15 AM 79.7 °F - 71.1 °F 75% 29.82 in 10.0 mi SSW 4.6 mph - N/A   Overcast
12:16 AM 79.7 °F - 71.1 °F 75% 29.82 in 10.0 mi SSW 5.8 mph - N/A   Overcast
12:35 AM 79.3 °F - 71.2 °F 76% 29.82 in 10.0 mi SSW 5.8 mph - N/A   Overcast
12:39 AM 79.5 °F - 71.4 °F 76% 29.82 in 10.0 mi South 5.8 mph - N/A   Overcast
12:57 AM 78.8 °F - 71.4 °F 78% 29.81 in 10.0 mi South 4.6 mph - N/A   Overcast
1:15 AM 78.3 °F - 71.6 °F 80% 29.81 in 10.0 mi South 4.6 mph - N/A   Overcast
1:16 AM 78.3 °F - 71.6 °F 80% 29.81 in 10.0 mi South 4.6 mph - N/A   Overcast
1:35 AM 77.9 °F - 71.2 °F 80% 29.81 in 10.0 mi South 4.6 mph - N/A   Overcast
1:36 AM 77.9 °F - 71.2 °F 80% 29.81 in 10.0 mi South 4.6 mph - N/A   Overcast
1:55 AM 77.9 °F - 71.1 °F 79% 29.81 in 10.0 mi South 5.8 mph - N/A   Overcast
2:00 AM 77.5 °F - 71.1 °F 80% 29.81 in 10.0 mi South 5.8 mph - N/A   Overcast
2:18 AM 77.4 °F - 71.6 °F 82% 29.81 in 10.0 mi SSW 4.6 mph - N/A   Overcast
2:36 AM 77.0 °F - 71.2 °F 82% 29.81 in 10.0 mi SSW 3.5 mph - N/A   Mostly Cloudy
2:55 AM 76.3 °F - 71.1 °F 84% 29.81 in 10.0 mi SSW 3.5 mph - N/A   Scattered Clouds
2:56 AM 76.3 °F - 71.1 °F 84% 29.80 in 10.0 mi SSW 3.5 mph - N/A   Scattered Clouds
3:15 AM 75.6 °F - 71.1 °F 86% 29.79 in 10.0 mi Calm Calm - N/A   Clear
3:16 AM 75.6 °F - 71.1 °F 86% 29.79 in 10.0 mi Calm Calm - N/A   Clear
3:39 AM 74.7 °F - 71.1 °F 88% 29.79 in 10.0 mi South 3.5 mph - N/A   Clear
3:57 AM 74.5 °F - 70.9 °F 88% 29.79 in 7.0 mi SSW 4.6 mph - N/A   Clear
4:15 AM 75.2 °F - 71.8 °F 89% 29.79 in 10.0 mi SSW 6.9 mph - N/A   Scattered Clouds
4:16 AM 75.2 °F - 71.8 °F 89% 29.79 in 10.0 mi SSW 5.8 mph - N/A   Scattered Clouds
4:35 AM 76.1 °F - 72.5 °F 89% 29.78 in 10.0 mi SSW 5.8 mph - N/A   Mostly Cloudy
4:36 AM 76.1 °F - 72.5 °F 89% 29.78 in 10.0 mi SSW 5.8 mph - N/A   Scattered Clouds
4:55 AM 76.1 °F - 72.7 °F 89% 29.78 in 10.0 mi South 4.6 mph - N/A   Scattered Clouds
5:00 AM 76.1 °F - 72.7 °F 89% 29.78 in 10.0 mi South 4.6 mph - N/A   Scattered Clouds
5:18 AM 76.1 °F - 72.9 °F 90% 29.78 in 7.0 mi South 4.6 mph - N/A   Scattered Clouds
5:36 AM 76.1 °F - 73.2 °F 91% 29.79 in 7.0 mi SSW 3.5 mph - N/A   Clear
5:55 AM 76.3 °F - 73.4 °F 91% 29.80 in 7.0 mi South 4.6 mph - N/A   Scattered Clouds
5:56 AM 76.3 °F - 73.4 °F 91% 29.80 in 7.0 mi South 4.6 mph - N/A   Scattered Clouds
6:15 AM 76.3 °F - 73.4 °F 91% 29.80 in 7.0 mi South 6.9 mph - N/A   Scattered Clouds
6:39 AM 76.6 °F - 73.8 °F 91% 29.80 in 7.0 mi South 9.2 mph - N/A   Scattered Clouds
6:56 AM 77.2 °F - 74.3 °F 91% 29.79 in 7.0 mi SSW 8.1 mph - N/A   Clear
7:15 AM 77.9 °F - 74.8 °F 90% 29.78 in 7.0 mi SSW 8.1 mph - N/A   Clear
7:16 AM 77.9 °F - 74.8 °F 90% 29.78 in 7.0 mi SSW 8.1 mph - N/A   Clear
7:35 AM 78.3 °F - 75.2 °F 90% 29.79 in 7.0 mi SSW 8.1 mph - N/A   Scattered Clouds
7:36 AM 78.3 °F - 75.2 °F 90% 29.79 in 7.0 mi SSW 6.9 mph - N/A   Scattered Clouds
7:55 AM 79.0 °F - 75.4 °F 89% 29.80 in 7.0 mi SSW 6.9 mph - N/A   Mostly Cloudy
8:00 AM 79.2 °F - 75.6 °F 89% 29.80 in 7.0 mi SSW 8.1 mph - N/A   Overcast
8:18 AM 79.7 °F - 75.7 °F 88% 29.81 in 7.0 mi SW 6.9 mph - N/A   Mostly Cloudy
8:36 AM 80.6 °F 86.6 °F 75.9 °F 86% 29.84 in 10.0 mi WSW 8.1 mph - N/A   Overcast
8:55 AM 80.8 °F 87.1 °F 76.1 °F 86% 29.84 in 10.0 mi WSW 6.9 mph - N/A   Mostly Cloudy
9:15 AM 81.0 °F 87.3 °F 76.1 °F 85% 29.84 in 10.0 mi WSW 8.1 mph - N/A   Mostly Cloudy
9:16 AM 81.0 °F 87.3 °F 76.1 °F 85% 29.84 in 10.0 mi SW 8.1 mph - N/A   Mostly Cloudy
9:39 AM 81.7 °F 89.2 °F 76.8 °F 85% 29.82 in 10.0 mi SSW 8.1 mph - N/A   Mostly Cloudy
9:57 AM 82.6 °F 90.5 °F 76.3 °F 81% 29.81 in 10.0 mi WSW 6.9 mph - N/A   Mostly Cloudy
10:15 AM 82.8 °F 90.7 °F 76.1 °F 80% 29.80 in 10.0 mi SW 4.6 mph - N/A   Scattered Clouds
10:16 AM 82.8 °F 90.7 °F 76.1 °F 80% 29.80 in 10.0 mi SSW 5.8 mph - N/A   Scattered Clouds
10:35 AM 83.7 °F 92.4 °F 76.3 °F 78% 29.81 in 10.0 mi SW 8.1 mph - N/A   Scattered Clouds
10:36 AM 83.8 °F 92.8 °F 76.3 °F 78% 29.81 in 10.0 mi SW 8.1 mph - N/A   Scattered Clouds
10:55 AM 85.8 °F 95.9 °F 76.3 °F 73% 29.80 in 10.0 mi SSW 10.4 mph - N/A   Scattered Clouds
11:18 AM 86.0 °F 95.5 °F 75.6 °F 71% 29.81 in 10.0 mi SSW 13.8 mph - N/A   Scattered Clouds
11:36 AM 86.5 °F 95.5 °F 74.8 °F 68% 29.82 in 10.0 mi SW 11.5 mph 18.4 mph N/A   Clear
11:55 AM 86.5 °F 95.0 °F 74.3 °F 67% 29.82 in 10.0 mi SW 15.0 mph 20.7 mph N/A   Scattered Clouds
12:15 PM 87.6 °F 95.7 °F 73.8 °F 63% 29.83 in 10.0 mi WSW 16.1 mph 20.7 mph N/A   Scattered Clouds
12:39 PM 88.7 °F 96.7 °F 73.4 °F 60% 29.83 in 10.0 mi SW 11.5 mph 21.9 mph N/A   Clear
12:57 PM 89.8 °F 97.5 °F 72.5 °F 57% 29.83 in 10.0 mi SW 13.8 mph 20.7 mph N/A   Clear
1:15 PM 88.7 °F 93.9 °F 70.0 °F 54% 29.84 in 10.0 mi SW 12.7 mph 19.6 mph N/A   Clear
1:35 PM 90.0 °F 95.4 °F 70.2 °F 52% 29.84 in 10.0 mi WSW 11.5 mph 21.9 mph N/A   Clear
1:55 PM 90.7 °F 96.9 °F 70.9 °F 52% 29.84 in 10.0 mi SSW 12.7 mph 17.3 mph N/A   Scattered Clouds
2:00 PM 91.0 °F 97.1 °F 70.7 °F 51% 29.84 in 10.0 mi SW 12.7 mph 18.4 mph N/A   Scattered Clouds
2:18 PM 91.0 °F 97.6 °F 71.4 °F 52% 29.84 in 10.0 mi SW 10.4 mph 19.6 mph N/A   Scattered Clouds
2:36 PM 91.2 °F 98.0 °F 71.4 °F 52% 29.84 in 10.0 mi SW 10.4 mph - N/A   Scattered Clouds
2:55 PM 91.6 °F 96.7 °F 69.3 °F 48% 29.84 in 10.0 mi WSW 11.5 mph 17.3 mph N/A   Scattered Clouds
2:56 PM 91.8 °F 96.5 °F 68.7 °F 47% 29.84 in 10.0 mi WSW 11.5 mph 17.3 mph N/A   Scattered Clouds
3:15 PM 91.6 °F 96.7 °F 69.3 °F 48% 29.83 in 10.0 mi WSW 11.5 mph 17.3 mph N/A   Clear
3:16 PM 91.6 °F 96.7 °F 69.4 °F 48% 29.83 in 10.0 mi WSW 9.2 mph 17.3 mph N/A   Clear
3:39 PM 91.4 °F 99.5 °F 72.7 °F 54% 29.83 in 10.0 mi SSW 9.2 mph 16.1 mph N/A   Mostly Cloudy
3:57 PM 90.5 °F 99.2 °F 73.4 °F 57% 29.83 in 10.0 mi SW 13.8 mph 19.6 mph N/A   Overcast
4:15 PM 89.8 °F 98.6 °F 73.6 °F 59% 29.83 in 10.0 mi SW 13.8 mph 20.7 mph N/A   Overcast
4:16 PM 89.8 °F 98.6 °F 73.6 °F 59% 29.83 in 10.0 mi SW 12.7 mph 20.7 mph N/A   Overcast
4:35 PM 89.6 °F 98.2 °F 73.8 °F 59% 29.83 in 10.0 mi WSW 11.5 mph - N/A   Overcast
4:55 PM 89.6 °F 98.7 °F 73.9 °F 60% 29.83 in 10.0 mi SW 13.8 mph 18.4 mph N/A   Overcast
5:18 PM 89.8 °F 99.7 °F 74.7 °F 61% 29.82 in 10.0 mi SW 9.2 mph - N/A   Scattered Clouds
5:35 PM 90.5 °F 99.7 °F 74.1 °F 58% 29.81 in 10.0 mi SW 12.7 mph 18.4 mph N/A   Clear
5:55 PM 89.6 °F 98.2 °F 73.6 °F 59% 29.82 in 10.0 mi WSW 12.7 mph 18.4 mph N/A   Clear
5:56 PM 89.6 °F 98.2 °F 73.6 °F 59% 29.82 in 10.0 mi WSW 12.7 mph 18.4 mph N/A   Clear
6:15 PM 89.1 °F 97.5 °F 73.4 °F 60% 29.81 in 10.0 mi West 10.4 mph 20.7 mph N/A   Scattered Clouds
6:39 PM 89.6 °F 97.7 °F 73.2 °F 58% 29.81 in 10.0 mi West 12.7 mph 21.9 mph N/A   Scattered Clouds
6:57 PM 88.5 °F 96.8 °F 73.8 °F 61% 29.82 in 10.0 mi WSW 5.8 mph - N/A   Mostly Cloudy
7:15 PM 87.3 °F 95.3 °F 73.9 °F 64% 29.83 in 10.0 mi WSW 8.1 mph - N/A   Overcast
7:16 PM 87.3 °F 95.3 °F 73.9 °F 64% 29.83 in 10.0 mi WSW 8.1 mph - N/A   Overcast
7:35 PM 86.9 °F 95.4 °F 74.3 °F 66% 29.83 in 10.0 mi WSW 6.9 mph - N/A   Overcast
7:36 PM 86.9 °F 95.4 °F 74.3 °F 66% 29.83 in 10.0 mi WSW 8.1 mph - N/A   Overcast
7:55 PM 86.2 °F 94.6 °F 74.5 °F 68% 29.82 in 10.0 mi West 5.8 mph - N/A   Overcast
8:00 PM 86.0 °F 94.6 °F 74.7 °F 69% 29.82 in 10.0 mi West 6.9 mph - N/A   Overcast
8:18 PM 86.2 °F 95.1 °F 74.8 °F 69% 29.83 in 10.0 mi WSW 3.5 mph - N/A   Overcast
8:36 PM 85.3 °F 93.7 °F 74.8 °F 71% 29.83 in 10.0 mi SSW 3.5 mph - N/A   Overcast
8:55 PM 84.4 °F 92.4 °F 75.0 °F 73% 29.84 in 10.0 mi Calm Calm - N/A   Scattered Clouds
9:15 PM 83.3 °F 90.8 °F 74.8 °F 76% 29.85 in 10.0 mi Calm Calm - N/A   Clear
9:16 PM 83.3 °F 90.8 °F 74.8 °F 76% 29.85 in 10.0 mi Calm Calm - N/A   Clear
9:38 PM 80.6 °F 86.2 °F 75.2 °F 84% 29.85 in 10.0 mi SSW 3.5 mph - N/A   Clear
9:57 PM 80.1 °F 85.1 °F 75.2 °F 85% 29.85 in 10.0 mi SSW 3.5 mph - N/A   Clear
10:15 PM 80.1 °F 85.1 °F 75.2 °F 85% 29.84 in 10.0 mi South 5.8 mph - N/A   Clear
10:35 PM 80.6 °F 85.9 °F 74.7 °F 82% 29.83 in 10.0 mi South 3.5 mph - N/A   Clear
10:55 PM 81.0 °F 86.9 °F 75.2 °F 83% 29.83 in 10.0 mi South 4.6 mph - N/A   Clear
11:18 PM 81.1 °F 87.2 °F 75.2 °F 82% 29.84 in 10.0 mi SW 3.5 mph - N/A   Clear
11:36 PM 80.6 °F 86.2 °F 75.2 °F 84% 29.84 in 10.0 mi Calm Calm - N/A   Scattered Clouds
11:56 PM 80.4 °F 85.8 °F 75.2 °F 84% 29.84 in 10.0 mi Calm Calm - N/A   Overcast